Regional Weather Roundup
Issued by NWS

Home | Current Version | Previous Version | Graphics & Text | Print | Product List | Glossary On
Versions: 1 2 3 4 5 6 7 8 9 10 11 12 13 14 15 16 17 18 19 20 21 22 23 24 25 26 27 28 29 30 31 32 33 34 35 36 37 38 39 40 41 42 43 44 45 46 47 48 49 50
000
ASUS43 KLOT 011858
RWRIL

ILLINOIS REGIONAL WEATHER ROUNDUP
NATIONAL WEATHER SERVICE CHICAGO/ROMEOVILLE IL
200 PM CDT FRI AUG 01 2014

NOTE: "FAIR" INDICATES FEW OR NO CLOUDS BELOW 12,000 FEET WITH NO
SIGNIFICANT WEATHER AND/OR OBSTRUCTIONS TO VISIBILITY.

* THESE STATIONS ARE NOT UNDER NWS QUALITY CONTROL. THEY ALSO MAY NOT
  REPORT WEATHER SUCH AS PRECIPITATION OR FOG.

ILZ001-002-007-009-015-016-024-012000-
NORTHWEST ILLINOIS

CITY           SKY/WX    TMP DP  RH WIND       PRES   REMARKS
MOLINE         MOSUNNY   80  61  52 NE6       30.07F HX  81
$$

ILZ003-004-008-010-011-017-018-012000-
NORTH CENTRAL ILLINOIS

CITY           SKY/WX    TMP DP  RH WIND       PRES   REMARKS
ROCKFORD       NOT AVBL
$$

ILZ005-006-012>014-019>023-012000-
NORTHEAST ILLINOIS

CITY           SKY/WX    TMP DP  RH WIND       PRES   REMARKS
CHICAGO-OHARE  PTSUNNY   76  56  49 NE17G30   30.07S
CHICAGO-MIDWAY MOSUNNY   81  65  58 SW10      30.06F HX  83
AURORA         PTSUNNY   82  62  50 W8        30.08F HX  83
WAUKEGAN       MOSUNNY   78  62  57 SE10      30.06F HX  80
DUPAGE AIRPORT MOSUNNY   83  59  44 W8        30.06F HX  83
WHEELING       TSTM      71  63  75 SE6       30.09F
NORTHERLY ISL    N/A     77  61  57 E8          N/A
$$

LMZ740>746-012000-
SOUTHERN LAKE MICHIGAN

STATION/POSITION SKY/WX   TEMP    WIND        PRES    VSBY  WAVE
                          AIR SEA DIR/SP/G                  HT/PER
                          (F)     (DEG/KT/KT) (MB)    (MI)  (FT/S)
SOUTHERN BUOY              67 65  270/  2/  2 1018.9F         0
WAUKEGAN HARBOR            73     150/ 11/ 13   N/A
HARRISON CRIB              71     160/  9/ 20   N/A
BURNHAM HARBOR             76     110/  8/  9   N/A
CALUMET HARBOR             74      50/  5/ 11 1017.3S
MICHIGAN CITY              73      10/  5/  6   N/A
MICHIGAN CITY 6N           72 71   60/  2/  4   N/A           0
ST. JOSEPH                 72 69  270/  2/  4   N/A           1
$$

ILZ025>027-034>036-040-047-049-050-058-095>099-012000-
WEST-CENTRAL ILLINOIS

CITY           SKY/WX    TMP DP  RH WIND       PRES   REMARKS
$$

ILZ028>032-037-038-041>044-048-051>054-059>061-012000-
CENTRAL ILLINOIS

CITY           SKY/WX    TMP DP  RH WIND       PRES   REMARKS
DECATUR        LGT RAIN  68  57  68 NE7       30.09F
PEORIA         NOT AVBL
SPRINGFIELD    TSTM      66  63  88 NE18G44   30.11R VSB 1/2
TAYLORVILLE    NOT AVBL
$$

ILZ033-039-045-046-055>057-062-063-012000-
EAST-CENTRAL ILLINOIS

CITY           SKY/WX    TMP DP  RH WIND       PRES   REMARKS
CHAMPAIGN      PTSUNNY   78  64  61 SE10      30.08F HX  80
MATTOON        PTSUNNY   81  59  47 NE6       30.07F HX  81
$$

ILZ079-100>102-012000-
SOUTHWEST ILLINOIS

CITY           SKY/WX    TMP DP  RH WIND       PRES   REMARKS
CAHOKIA*       SUNNY     86  58  38 E6        30.05F HX  85
$$

ILZ064>066-069>071-074>076-080>082-084>086-088>090-092>094-012000-
SOUTH-CENTRAL ILLINOIS

CITY           SKY/WX    TMP DP  RH WIND       PRES   REMARKS
CARBONDALE     MOSUNNY   83  62  49 VRB3      30.06F HX  84
MARION         MOSUNNY   86  59  39 SW5       30.08F HX  85
$$

ILZ067-068-072-073-078-083-087-091-012000-
SOUTHEAST ILLINOIS

CITY           SKY/WX    TMP DP  RH WIND       PRES   REMARKS
$$

ABBREVIATIONS USED IN REMARKS
   TC - TEMPERATURE IN CELSIUS
  WCI - WIND CHILL INDEX
   HX - HEAT INDEX
  VSB - VISIBILITY
$$



USA.gov is the U.S. government's official web portal to all federal, state and local government web resources and services.